{"data":{"norad_id":65268,"intl_designator":"2025-182B","name":"COSMOS 2592","alt_names":[],"object_type":"PAYLOAD","status":"ACTIVE","operator":null,"country":"CIS","launch_date":"2025-08-21","launch_site_code":"PLMSC","launch_vehicle":null,"mission":null,"orbit_class":"UNKNOWN","rcs_meters":null,"size_class":null,"mass_kg":null,"dimensions":null,"purposes":[],"wikipedia_slug":null,"has_3d_model":false,"image_url":null,"decayed_at":null,"tle_current":{"epoch":"2026-09-20T05:11:39.596064Z","epoch_age_seconds":186806,"freshness":"STALE","line1":"1 65268U 25182B   26263.21643051  .00055820  30313-5  13519-3 0  9993","line2":"2 65268  96.5773 192.2886 0007644 107.4708 252.7407 15.96433461 62850","mean_motion":15.96433461,"eccentricity":0.0007644,"inclination_deg":96.5773,"raan_deg":192.2886,"arg_perigee_deg":107.4708,"mean_anomaly_deg":252.7407,"bstar":0.00013519,"rev_number":6285,"period_min":90.201066012359,"perigee_km":279.23040040453,"apogee_km":289.41596953531,"semimajor_km":6662.4601849699,"source":"CELESTRAK","updated_at":"2026-09-22T09:00:30.245810Z"}}}